Вернуться в каталог

STARLINK-6359

АктивенСвязьVLEO
NORAD 57346·PAYLOAD·🇺🇸 United States

Запущен Jul 16, 2023 с Cape Canaveral Space Force Station

Loading…

Ближайшие Пролёты (ближайшие 24 часа)

TLE

СвежийSource: CelesTrak SupGP

Эпоха: Sep 14, 2026, 20:49 UTC

1 57346C 23099U   26257.86784722  .00024055  00000+0  87154-3 0  2574
2 57346  43.0026 260.9424 0001309 266.2127 139.4664 15.27556165    15

Отслеживайте STARLINK-6359 в реальном времени с AllMySat

Download on the App Store